This is the latest recevied weather packets stored in our database for station/object WA2TQI. If no packets are shown the sender has not sent any weather packets the latest 10 day(s).
| Time | Temp. | Humidity | Pressure | Rain* | Wind** | Luminosity | Snow |
|---|---|---|---|---|---|---|---|
| 1777740452 | 13.33° C | 64% | 1013.7 hPa | 0 mm | - | - | - |
| 1777739846 | 13.33° C | 66% | 1013.8 hPa | 0 mm | - | - | - |
| 1777739543 | 13.33° C | 68% | 1013.8 hPa | 0 mm | - | - | - |
| 1777739239 | 13.33° C | 67% | 1013.9 hPa | 0 mm | - | - | - |
| 1777738634 | 13.33° C | 69% | 1014 hPa | 0 mm | - | - | - |
| 1777738330 | 13.33° C | 69% | 1014.2 hPa | 0 mm | - | - | - |
| 1777738028 | 13.89° C | 70% | 1014.3 hPa | 0 mm | - | - | - |
| 1777737123 | 12.78° C | 74% | 1014.3 hPa | 0 mm | - | - | - |
| 1777736818 | 12.78° C | 73% | 1014.2 hPa | 0 mm | - | - | - |
| 1777736195 | 12.78° C | 75% | 1014 hPa | 0 mm | - | - | - |
| 1777735892 | 12.78° C | 75% | 1014.2 hPa | 0 mm | - | - | - |
| 1777735589 | 12.78° C | 75% | 1014.1 hPa | 0 mm | - | - | - |
| 1777735287 | 12.78° C | 74% | 1014.1 hPa | 0 mm | - | - | - |
| 1777734984 | 12.78° C | 74% | 1014 hPa | 0 mm | - | - | - |
| 1777734681 | 12.78° C | 74% | 1013.9 hPa | 0 mm | - | - | - |
| 1777734379 | 12.78° C | 74% | 1014.1 hPa | 0 mm | - | - | - |
| 1777734074 | 12.78° C | 74% | 1013.8 hPa | 0 mm | - | - | - |
| 1777733771 | 12.78° C | 75% | 1013.9 hPa | 0 mm | - | - | - |
| 1777733468 | 12.78° C | 73% | 1014 hPa | 0 mm | - | - | - |
| 1777733164 | 12.78° C | 73% | 1014 hPa | 0 mm | - | - | - |
| 1777732860 | 12.78° C | 73% | 1013.9 hPa | 0 mm | - | - | - |
| 1777732557 | 12.78° C | 75% | 1013.9 hPa | 0 mm | - | - | - |
| 1777732255 | 12.78° C | 74% | 1013.9 hPa | 0 mm | - | - | - |
| 1777731952 | 12.22° C | 75% | 1014 hPa | 0 mm | - | - | - |
| 1777731649 | 12.22° C | 73% | 1013.8 hPa | 0 mm | - | - | - |
* Rain latest hour (hover to see other rain measurements)
** Current wind speed in m/s (hover to see current wind gust speed)